Wetbulb
77.47 77.64 77.11 72.24 65.71 62.83 58.72 60.04 64.59 61.60 62.63 65.83 66.21 64.87 64.80 66.39 64.08 60.88 73.52 74.75 74.97 75.53 76.01 76.44 76.58 76.63 76.74 76.71 76.44 76.18 75.88 75.39 75.71 75.83 75.55 75.19 75.14 75.50 75.44 75.36 75.55 75.36 75.42 75.80 75.91 75.72 75.99 76.50 76.42
76.99 74.71 74.31 69.85 62.50 56.75 58.26 62.99 61.66 63.26 66.51 66.98 67.99 67.41 65.93 65.43 69.33 70.34 71.74 74.79 75.14 75.11 75.95 76.17 77.20 77.35 77.00 76.63 76.28 76.06 76.10 76.16 75.91 75.89 75.67 75.50 75.36 75.36 75.25 75.38 75.67 75.72 75.86 75.75 75.63 75.46 75.51 75.80 75.89
75.11 74.28 69.98 66.53 61.57 57.74 58.26 63.30 64.50 66.15 67.30 66.29 66.16 69.14 68.09 67.19 70.16 71.47 74.21 74.91 75.21 75.12 75.91 76.37 77.14 77.41 76.54 76.56 76.68 76.49 76.27 75.80 75.77 75.69 75.47 75.39 75.03 74.88 74.88 74.68 74.91 75.19 75.33 75.36 75.41 75.49 75.12 75.17 75.52
73.86 72.71 70.76 62.75 59.13 62.19 62.66 64.98 66.40 65.97 67.22 67.73 67.71 65.05 69.06 71.84 71.07 73.21 74.97 74.83 74.66 74.90 75.83 76.44 77.29 76.58 76.73 76.70 76.62 76.48 76.20 76.30 76.08 75.88 75.25 75.11 75.03 74.63 74.88 74.63 74.77 74.80 75.22 74.94 75.44 75.36 75.16 75.06 75.04
75.08 71.38 64.41 60.85 60.62 63.41 65.67 66.81 66.97 65.02 66.08 66.36 66.17 64.42 66.17 70.71 73.63 74.29 74.46 74.48 74.12 74.70 75.90 76.62 77.64 77.14 76.84 76.84 76.89 76.81 76.35 76.32 76.15 76.16 75.94 75.86 75.72 75.78 75.61 75.44 75.33 75.44 75.44 75.22 75.06 75.55 75.58 75.13 74.88
69.81 68.93 60.34 58.59 60.60 63.67 65.96 67.38 66.89 65.93 66.75 65.98 65.90 66.57 67.45 72.83 72.45 73.76 74.28 74.30 74.55 74.52 75.41 76.28 77.11 76.84 76.62 76.81 76.91 76.74 76.62 75.94 76.10 75.94 76.05 76.13 75.92 75.67 75.61 75.42 75.22 75.44 75.72 75.16 75.25 75.55 75.89 75.75 75.72
67.41 65.72 60.87 60.87 61.09 62.40 64.77 68.59 67.01 66.18 65.41 64.29 67.59 64.77 68.00 70.72 72.70 73.95 74.14 74.39 74.30 74.80 74.99 75.47 76.07 77.45 77.08 76.98 76.93 76.89 76.79 76.18 76.09 76.26 76.38 76.21 75.89 75.94 76.08 75.67 75.53 75.72 76.19 75.88 75.86 75.42 75.88 76.19 75.47
70.14 67.48 61.65 62.40 60.41 61.47 66.43 67.36 68.43 66.80 64.38 68.56 68.40 63.66 65.63 70.58 72.97 73.74 73.82 73.95 73.95 74.48 74.76 75.29 76.21 76.72 77.25 77.37 76.91 77.08 76.22 76.49 76.43 76.68 76.55 76.30 76.64 76.55 76.00 75.63 75.77 75.94 76.05 75.88 75.69 75.64 75.64 75.76 75.69
70.82 64.12 59.14 60.83 61.15 63.00 67.65 65.76 69.15 70.11 66.09 68.34 69.46 67.28 70.22 72.57 73.05 72.44 72.50 72.87 73.36 73.97 74.94 75.26 75.26 75.71 76.47 76.81 77.30 76.69 76.58 76.19 76.45 77.28 76.55 77.57 77.59 76.49 77.28 76.73 75.83 75.72 75.37 75.94 75.78 75.52 75.85 75.77 76.24
67.67 64.11 60.76 64.85 65.18 64.21 67.15 67.38 68.16 67.08 65.84 67.27 68.18 70.16 71.66 72.13 71.71 70.45 70.44 70.73 71.61 72.51 73.73 75.10 74.75 74.49 75.34 75.10 77.30 77.18 76.91 77.81 77.04 76.96 77.23 76.54 77.09 77.07 76.43 76.26 75.41 75.27 76.05 76.47 76.02 76.33 76.05 75.91 74.74
66.75 63.55 65.20 65.71 66.48 67.60 66.65 67.06 69.02 66.75 65.05 67.95 66.78 68.41 70.07 70.54 70.31 69.54 69.69 70.19 70.74 72.28 73.35 74.18 74.35 75.16 75.05 75.08 75.57 76.84 77.07 77.21 76.39 77.37 76.91 76.77 76.61 76.39 75.46 76.62 76.19 76.81 76.97 75.64 76.29 76.74 76.50 76.12 75.90
64.27 65.69 66.40 66.66 67.70 66.88 66.65 68.92 67.38 67.31 67.59 70.64 69.36 69.20 69.30 69.11 69.31 69.57 69.28 69.51 70.18 71.51 72.72 73.40 73.81 74.94 74.13 73.76 73.64 74.88 75.75 76.39 75.68 76.24 77.05 76.81 75.15 74.77 75.44 75.41 76.54 76.42 75.64 75.09 75.20 74.64 75.40 75.86 76.34
63.67 65.02 65.79 66.87 66.47 67.50 68.44 67.60 67.22 67.80 69.82 71.14 68.88 68.62 68.98 70.02 70.31 70.81 70.77 69.98 70.43 70.67 72.06 72.51 73.82 75.72 75.57 75.53 73.65 73.18 74.23 74.85 75.28 75.33 75.86 75.68 74.90 75.78 75.94 77.17 75.98 76.89 74.96 74.94 76.08 75.61 75.48 75.66 75.39
64.25 65.33 65.13 66.21 66.66 67.55 66.16 66.96 67.17 68.56 70.79 69.72 68.08 68.40 69.75 70.28 70.56 70.92 70.49 70.06 70.00 70.98 71.92 72.63 73.42 75.44 75.50 75.74 76.16 74.30 74.19 74.11 75.00 75.48 75.18 76.03 75.20 76.33 76.50 77.86 73.87 74.55 75.01 75.85 77.47 76.94 74.23 74.93 74.52
63.57 62.59 64.10 65.99 66.61 66.10 67.55 64.32 64.62 69.66 70.52 68.89 68.32 68.04 69.30 70.33 71.18 71.06 71.74 71.65 71.16 71.30 72.59 72.69 73.64 74.44 74.80 75.47 75.98 75.70 75.76 75.57 75.57 76.11 77.16 77.88 77.31 77.15 77.41 75.74 75.83 74.17 72.89 72.36 73.08 74.87 76.03 72.84 75.68
61.80 62.79 58.01 63.29 65.60 66.39 66.43 61.76 67.01 70.17 69.41 68.01 68.27 67.82 68.35 70.15 70.83 71.88 72.56 72.81 72.90 72.36 72.93 73.70 73.56 73.87 74.40 74.42 75.70 76.01 76.13 76.76 77.03 77.33 77.14 77.46 77.90 78.11 76.46 75.30 75.15 76.06 74.54 72.08 71.78 73.91 77.12 74.40 74.73
59.80 55.50 55.96 58.15 64.63 64.98 65.29 61.95 67.13 70.24 69.21 67.77 68.32 68.44 68.44 69.88 70.87 72.20 73.05 73.68 73.86 74.48 74.15 73.81 73.94 73.75 74.43 75.27 75.33 76.07 76.95 77.21 77.40 77.55 77.33 77.89 78.47 78.80 77.58 76.47 76.51 76.99 76.22 71.99 71.75 74.64 74.77 72.71 72.48
54.89 54.90 56.11 55.44 61.19 63.80 62.79 62.87 66.57 68.88 68.82 68.41 68.14 68.35 68.68 69.51 70.11 72.13 73.33 73.97 74.30 74.90 75.28 74.97 73.91 74.20 74.98 74.96 75.35 75.38 76.21 77.03 77.70 77.55 77.70 78.71 78.74 79.01 78.53 77.57 77.49 76.55 76.06 71.58 71.74 72.94 73.39 72.37 73.20
57.39 56.27 55.27 56.91 62.23 61.37 61.41 62.28 64.48 68.02 68.20 67.96 68.56 68.48 68.35 68.54 70.58 71.91 73.07 73.98 74.17 74.95 75.10 75.42 74.31 74.83 74.69 74.51 74.27 74.38 74.52 76.17 76.65 77.22 78.50 79.13 78.84 78.62 78.48 77.65 75.83 76.30 74.40 72.19 72.92 73.31 74.03 75.48 75.10
57.16 56.05 54.85 58.01 62.67 62.19 61.71 62.07 64.98 66.83 67.78 68.25 68.51 68.87 68.80 68.84 69.27 70.76 72.01 73.11 73.38 74.26 75.04 75.66 75.41 75.54 75.14 75.27 75.81 76.09 76.50 76.51 77.19 78.03 78.77 79.61 79.56 79.70 79.21 76.74 76.03 75.37 74.30 74.73 74.47 74.83 72.70 73.06 74.62
57.34 55.27 54.88 55.51 59.72 63.05 61.41 60.55 62.26 65.42 67.45 68.49 69.10 69.56 69.90 69.23 68.43 69.57 70.87 71.86 72.68 73.38 74.77 75.50 76.22 76.62 76.61 76.65 76.29 76.81 77.31 77.36 76.64 77.16 77.61 79.42 80.18 79.61 79.10 77.83 77.56 75.08 74.62 74.38 74.95 75.00 75.08 74.33 76.27
54.76 57.59 56.81 57.42 58.11 54.41 60.98 52.95 59.27 62.62 64.53 66.28 67.91 68.95 69.21 69.91 69.96 69.52 69.90 70.91 71.68 72.90 74.32 75.47 76.52 76.82 77.03 77.56 76.78 76.76 75.17 74.29 75.63 77.48 78.92 78.87 78.75 78.25 77.65 77.58 77.43 76.86 75.81 76.61 75.91 75.96 76.24 75.73 74.02
55.17 58.14 57.69 57.87 56.96 56.34 58.52 54.50 57.81 61.92 61.92 64.84 66.71 68.39 69.32 70.61 70.80 70.49 69.98 70.47 71.88 72.85 73.30 74.29 75.98 76.93 77.43 77.30 78.18 75.96 76.14 75.71 76.59 77.14 78.18 79.33 78.64 77.53 76.52 76.83 76.81 76.73 75.91 76.49 76.62 76.66 76.47 76.66 74.94
55.15 56.86 58.25 57.95 56.20 51.38 56.24 53.58 55.93 57.92 59.63 63.77 66.81 67.83 69.11 70.20 71.16 71.82 72.40 71.99 71.86 72.96 73.51 74.16 75.53 76.51 77.13 77.07 77.20 77.33 77.96 76.96 76.13 76.75 75.83 76.62 77.24 76.93 77.09 76.82 77.63 78.06 77.77 76.59 76.51 77.22 76.00 76.00 75.35
55.77 55.58 50.87 49.80 50.71 50.36 56.87 52.89 55.20 59.29 61.21 63.60 65.66 67.29 68.95 70.19 71.04 71.46 71.94 72.04 72.26 72.64 73.51 74.01 75.06 75.79 76.80 76.60 76.73 77.18 77.36 78.14 77.78 77.63 76.57 77.35 76.25 76.26 76.60 77.94 77.84 76.96 77.49 76.54 76.34 75.38 74.86 73.97 73.18
55.60 55.76 51.16 45.98 47.14 49.20 56.44 50.55 53.99 60.48 63.69 64.76 66.22 67.01 68.33 69.11 70.26 71.05 72.04 72.64 73.01 73.10 73.78 74.30 74.43 75.54 76.43 76.58 76.90 78.41 78.53 77.10 77.05 77.81 77.17 77.48 76.68 76.57 77.45 77.11 76.32 76.26 76.11 75.28 75.14 73.49 73.21 73.49 72.66
54.83 52.68 57.17 51.72 52.38 50.04 52.57 53.35 58.08 61.48 62.92 64.49 65.20 66.59 67.43 68.41 69.51 71.49 72.21 72.85 73.51 73.62 74.15 74.48 74.77 75.72 76.29 76.15 77.17 77.82 78.14 78.00 77.52 78.48 79.25 77.82 77.85 76.99 77.27 76.72 75.72 75.53 75.21 74.81 74.28 72.90 72.44 72.52 71.89
54.42 57.07 51.90 52.58 47.24 46.42 50.66 51.33 55.60 57.80 61.54 63.83 64.70 66.16 67.81 68.78 69.46 70.92 72.04 72.49 73.46 73.78 74.27 74.91 75.13 75.30 76.31 76.28 76.96 77.15 77.76 78.36 78.28 78.90 78.68 78.34 77.55 77.60 77.14 76.21 75.19 75.05 74.94 74.69 73.75 72.66 72.30 71.51 70.23
51.90 52.63 53.42 53.59 52.49 48.65 47.51 52.55 58.21 59.34 62.73 63.61 65.09 67.17 67.97 69.31 69.59 70.32 71.89 72.76 73.16 73.78 73.96 74.13 74.86 75.47 76.11 76.68 77.20 77.60 77.59 78.19 78.47 78.25 78.55 78.15 77.53 77.52 76.83 75.24 75.21 74.77 74.47 74.31 73.48 72.93 71.28 69.12 68.33
53.82 53.34 54.03 50.68 50.99 52.28 51.22 51.13 61.45 62.42 64.19 64.50 65.51 67.52 68.70 69.30 70.44 71.58 72.28 72.88 73.14 73.56 74.42 74.50 74.86 75.24 76.31 77.31 77.56 77.77 77.88 78.19 77.80 78.06 78.21 78.26 77.39 77.10 76.00 75.39 75.06 74.56 74.07 73.79 72.90 70.85 70.25 68.79 67.04
MSLP
1009.55 1009.34 1009.17 1009.03 1008.11 1005.53 1004.89 1005.07 1004.90 1005.30 1005.36 1005.68 1006.23 1006.41 1006.66 1007.43 1007.85 1009.03 1010.32 1011.06 1011.65 1012.03 1013.34 1014.06 1014.62 1014.66 1014.84 1015.05 1015.33 1015.53 1015.80 1016.01 1016.17 1016.27 1016.41 1016.56 1016.72 1016.90 1017.06 1017.24 1017.41 1017.64 1017.70 1017.85 1017.87 1017.96 1018.02 1018.08 1018.19
1008.65 1009.36 1008.97 1007.35 1005.51 1004.15 1004.83 1004.66 1004.50 1004.89 1005.45 1005.97 1006.34 1006.78 1006.83 1007.95 1008.99 1009.72 1010.70 1011.40 1011.58 1011.94 1012.61 1013.71 1014.72 1014.87 1015.03 1015.30 1015.52 1015.67 1015.92 1016.11 1016.31 1016.43 1016.58 1016.71 1016.90 1017.05 1017.22 1017.36 1017.57 1017.74 1017.87 1018.05 1018.02 1018.05 1018.12 1018.24 1018.36
1008.82 1008.86 1007.33 1005.64 1004.23 1004.11 1004.69 1004.87 1004.86 1005.29 1005.82 1005.93 1006.55 1007.04 1007.43 1008.73 1009.69 1009.95 1010.81 1011.42 1011.48 1011.91 1012.46 1014.14 1014.83 1015.03 1015.29 1015.49 1015.61 1015.77 1016.03 1016.26 1016.44 1016.62 1016.78 1016.89 1017.06 1017.16 1017.27 1017.45 1017.66 1017.71 1017.90 1018.05 1018.07 1018.12 1018.23 1018.31 1018.42
1008.11 1007.71 1006.78 1004.91 1004.40 1004.71 1004.53 1004.84 1005.21 1005.58 1006.03 1006.27 1006.57 1007.47 1008.82 1009.72 1009.84 1010.22 1011.23 1011.57 1011.76 1012.03 1012.58 1014.72 1015.01 1015.17 1015.42 1015.61 1015.79 1015.95 1016.21 1016.35 1016.56 1016.73 1016.93 1017.02 1017.11 1017.18 1017.24 1017.43 1017.62 1017.74 1017.90 1018.09 1018.09 1018.18 1018.30 1018.36 1018.47
1007.95 1006.76 1004.78 1004.28 1004.58 1004.66 1004.81 1005.08 1005.22 1005.30 1005.77 1006.25 1006.70 1007.75 1009.42 1010.14 1010.46 1010.98 1011.45 1011.53 1011.74 1011.99 1012.84 1014.36 1015.15 1015.33 1015.54 1015.72 1015.91 1016.05 1016.24 1016.38 1016.56 1016.78 1017.00 1017.09 1017.12 1017.14 1017.21 1017.43 1017.56 1017.71 1017.86 1018.03 1018.16 1018.23 1018.31 1018.37 1018.50
1005.99 1005.46 1003.59 1003.62 1004.29 1004.62 1004.73 1005.14 1005.26 1005.27 1005.93 1006.66 1007.07 1008.01 1009.76 1010.39 1010.72 1011.06 1011.38 1011.46 1011.79 1012.02 1012.78 1014.20 1015.24 1015.45 1015.66 1015.85 1016.04 1016.19 1016.33 1016.50 1016.72 1016.88 1017.03 1017.13 1017.19 1017.28 1017.38 1017.50 1017.66 1017.80 1017.95 1018.04 1018.19 1018.27 1018.30 1018.35 1018.46
1005.27 1004.17 1003.94 1003.72 1004.18 1004.13 1004.55 1005.09 1005.13 1005.19 1005.66 1006.29 1006.89 1007.71 1010.13 1010.22 1010.76 1011.14 1011.43 1011.66 1012.03 1012.33 1012.68 1013.73 1014.42 1015.19 1015.71 1015.90 1016.13 1016.30 1016.44 1016.59 1016.77 1016.93 1017.04 1017.16 1017.28 1017.40 1017.51 1017.60 1017.75 1017.90 1018.02 1018.08 1018.25 1018.35 1018.38 1018.43 1018.58
1005.43 1004.66 1003.75 1003.82 1003.60 1004.08 1004.52 1004.86 1005.18 1005.15 1005.83 1006.64 1006.84 1007.64 1009.33 1009.96 1010.78 1011.25 1011.56 1011.94 1012.28 1012.57 1012.75 1013.09 1013.32 1014.26 1014.73 1015.32 1016.14 1016.33 1016.44 1016.61 1016.79 1016.96 1017.03 1017.15 1017.31 1017.44 1017.56 1017.72 1017.76 1017.95 1018.04 1018.13 1018.15 1018.26 1018.38 1018.41 1018.60
1005.44 1003.39 1002.96 1003.35 1003.18 1003.88 1004.54 1004.92 1005.24 1005.42 1005.97 1006.39 1006.99 1007.05 1008.53 1010.10 1010.66 1011.08 1011.48 1011.90 1012.29 1012.62 1012.64 1012.86 1013.20 1013.93 1014.65 1014.90 1015.65 1016.27 1016.49 1016.69 1016.81 1016.83 1017.06 1017.16 1016.12 1016.66 1017.10 1017.21 1017.74 1017.91 1017.93 1018.07 1018.13 1018.21 1018.29 1018.44 1018.37
1004.30 1002.99 1003.47 1003.59 1003.35 1003.57 1004.18 1004.43 1004.93 1005.28 1005.83 1006.60 1007.23 1007.87 1009.24 1010.00 1010.50 1010.62 1011.06 1011.39 1011.98 1012.44 1012.66 1013.25 1013.53 1013.87 1014.39 1014.70 1015.25 1015.69 1015.83 1015.75 1015.93 1016.05 1016.42 1016.45 1016.26 1016.46 1016.83 1017.25 1017.90 1018.00 1018.00 1017.97 1018.00 1018.05 1018.13 1018.19 1016.86
1003.68 1003.07 1003.26 1003.08 1003.23 1003.36 1003.93 1004.26 1004.53 1004.87 1005.32 1006.22 1007.18 1008.08 1009.19 1009.74 1010.15 1010.31 1010.68 1010.91 1011.36 1012.00 1012.56 1013.21 1013.73 1014.09 1014.36 1014.52 1015.04 1015.07 1015.28 1015.73 1015.86 1016.34 1016.44 1016.29 1016.48 1016.49 1016.66 1016.39 1016.82 1017.06 1017.59 1016.90 1017.28 1017.41 1017.24 1016.80 1016.69
1003.27 1003.29 1003.24 1003.07 1003.20 1003.30 1003.59 1004.06 1004.37 1004.56 1005.01 1005.71 1007.09 1008.03 1008.75 1009.28 1009.49 1009.81 1010.20 1010.54 1010.94 1011.70 1012.44 1012.99 1013.42 1014.24 1014.36 1014.60 1015.04 1015.20 1015.12 1015.47 1015.62 1015.84 1016.49 1016.54 1016.48 1016.41 1016.77 1016.45 1016.47 1016.65 1016.35 1016.56 1016.66 1016.48 1016.46 1016.87 1016.98
1003.13 1002.82 1003.11 1003.02 1003.10 1003.13 1003.64 1004.00 1004.22 1004.67 1005.39 1005.99 1007.01 1007.97 1008.54 1008.81 1009.21 1009.50 1009.92 1010.49 1010.93 1011.44 1012.09 1012.62 1013.37 1014.34 1014.54 1014.94 1014.87 1015.19 1015.39 1015.49 1015.44 1015.85 1016.16 1016.34 1016.22 1016.33 1016.41 1016.34 1016.47 1016.82 1017.15 1016.90 1017.11 1016.39 1016.34 1016.66 1016.57
1002.85 1002.84 1002.82 1002.93 1002.87 1003.15 1003.59 1004.05 1004.43 1005.07 1005.36 1006.11 1006.85 1007.60 1008.15 1008.46 1008.88 1009.37 1009.75 1010.23 1010.85 1011.32 1011.83 1012.48 1013.33 1014.11 1014.48 1014.82 1015.17 1015.26 1015.30 1015.27 1015.42 1015.46 1015.72 1016.39 1016.17 1016.12 1015.92 1016.44 1017.36 1017.48 1017.29 1016.50 1016.71 1017.08 1017.18 1016.76 1016.66
1002.52 1002.44 1002.50 1002.80 1002.93 1003.29 1003.58 1004.09 1004.17 1005.05 1005.58 1006.12 1006.73 1007.32 1007.82 1008.22 1008.66 1009.09 1009.54 1010.01 1010.64 1011.17 1011.73 1012.41 1013.17 1013.62 1014.43 1014.81 1015.10 1015.26 1014.94 1014.99 1015.08 1015.27 1015.68 1016.05 1016.15 1016.02 1016.30 1016.50 1016.78 1017.07 1017.26 1017.44 1017.34 1016.57 1016.48 1017.43 1016.99
1001.99 1001.86 1001.42 1002.32 1002.87 1003.61 1003.77 1002.96 1004.24 1005.16 1005.49 1005.83 1006.39 1006.98 1007.55 1007.95 1008.27 1008.73 1009.23 1009.63 1010.14 1010.62 1011.48 1012.35 1012.83 1013.17 1013.85 1014.28 1014.67 1014.66 1014.65 1014.72 1014.80 1014.99 1015.18 1015.65 1015.91 1016.08 1016.39 1016.55 1016.08 1016.04 1016.92 1017.13 1017.23 1016.80 1016.74 1017.02 1016.94
1001.12 1000.85 1001.26 1001.61 1002.69 1002.95 1003.48 1002.99 1003.99 1004.87 1005.13 1005.37 1005.91 1006.58 1007.21 1007.69 1007.97 1008.36 1008.79 1009.41 1009.60 1010.41 1011.19 1012.05 1012.67 1013.00 1013.42 1014.15 1014.31 1014.48 1014.52 1014.67 1014.51 1014.59 1014.74 1015.00 1015.45 1015.71 1015.99 1015.80 1015.20 1015.64 1015.79 1016.95 1017.11 1016.84 1016.94 1016.89 1016.68
1001.18 1001.13 1001.17 1001.37 1002.03 1002.61 1002.60 1002.81 1003.53 1004.15 1004.42 1004.81 1005.50 1005.94 1006.66 1007.12 1007.53 1007.99 1008.50 1008.99 1009.59 1010.15 1011.10 1011.88 1012.35 1012.89 1013.54 1013.95 1014.39 1014.22 1014.16 1014.22 1014.23 1014.29 1014.37 1014.79 1015.03 1015.26 1015.32 1015.18 1015.16 1015.16 1015.82 1016.51 1016.77 1016.81 1016.82 1016.62 1016.27
1001.71 1001.35 1000.98 1001.14 1002.03 1002.20 1001.81 1002.10 1002.55 1003.44 1003.88 1004.07 1004.77 1005.33 1005.73 1006.12 1006.84 1007.51 1008.20 1008.61 1009.18 1009.88 1010.63 1011.46 1012.12 1012.69 1013.25 1013.49 1013.58 1013.67 1013.56 1013.67 1013.85 1013.88 1014.28 1014.66 1014.65 1015.07 1015.08 1014.78 1015.45 1015.11 1015.69 1016.12 1016.47 1016.49 1015.81 1016.09 1016.06
1001.50 1001.02 1000.62 1001.09 1001.98 1001.96 1001.32 1001.31 1001.50 1002.47 1003.07 1003.53 1003.96 1004.48 1004.91 1005.42 1005.98 1006.86 1007.44 1008.06 1008.53 1009.23 1010.06 1010.95 1011.66 1012.32 1012.90 1012.91 1013.12 1013.13 1013.17 1013.19 1013.33 1013.35 1013.72 1014.02 1014.24 1014.56 1014.59 1015.17 1015.22 1015.44 1015.41 1015.62 1015.91 1015.81 1015.97 1016.19 1015.46
1000.86 1000.66 1001.13 1001.31 1001.31 1001.47 1000.94 999.86 1000.66 1001.40 1002.34 1002.90 1003.32 1003.69 1004.05 1004.54 1005.13 1005.85 1006.62 1007.23 1007.98 1008.56 1009.43 1010.08 1010.80 1011.45 1012.18 1012.47 1012.92 1013.25 1013.45 1013.58 1013.35 1013.29 1013.34 1013.45 1013.85 1014.24 1014.46 1014.59 1014.87 1015.28 1015.39 1014.75 1015.21 1015.29 1015.53 1015.47 1015.04
1000.54 1001.15 1001.28 1001.15 1000.60 999.90 1000.66 999.44 999.57 1000.46 1001.35 1001.91 1002.31 1002.75 1003.18 1003.59 1004.39 1004.86 1005.52 1006.31 1006.96 1007.77 1008.52 1009.36 1010.22 1011.01 1011.50 1012.08 1012.13 1012.54 1012.53 1012.42 1012.35 1012.83 1013.21 1013.68 1014.04 1013.99 1014.14 1014.36 1014.48 1014.83 1014.86 1014.85 1014.87 1014.94 1015.07 1015.19 1014.83
1000.90 1001.50 1001.41 1001.06 1000.03 999.76 999.98 999.10 998.67 999.92 1000.08 1000.54 1001.19 1001.55 1002.18 1002.56 1003.23 1003.89 1004.43 1005.09 1005.89 1006.77 1007.61 1008.47 1009.43 1010.37 1010.89 1011.47 1011.70 1011.96 1012.35 1012.09 1012.36 1012.69 1013.67 1013.80 1014.11 1014.11 1014.19 1014.33 1014.48 1014.64 1014.52 1014.93 1014.91 1014.96 1015.15 1015.07 1015.09
1001.59 1001.41 1000.92 1000.43 999.59 998.71 999.34 999.45 997.81 998.21 998.69 999.05 999.99 1000.59 1001.26 1001.91 1002.42 1003.05 1003.78 1004.44 1005.18 1006.07 1006.95 1007.81 1008.82 1009.83 1010.51 1011.04 1011.59 1011.68 1011.62 1012.01 1012.06 1012.60 1012.89 1012.98 1013.47 1014.02 1014.23 1014.33 1014.39 1014.38 1014.43 1014.66 1014.77 1014.96 1014.98 1014.91 1014.96
1001.19 1000.39 999.42 998.76 998.13 998.26 999.32 998.89 997.81 997.80 998.12 998.58 999.00 999.85 1000.57 1001.23 1002.01 1002.40 1002.99 1003.64 1004.52 1005.30 1006.29 1007.22 1008.11 1009.12 1009.85 1010.39 1010.82 1011.15 1011.48 1011.89 1012.16 1012.34 1012.31 1012.55 1012.99 1013.36 1014.17 1014.39 1014.58 1014.56 1014.76 1014.87 1014.95 1015.21 1015.30 1015.42 1015.39
1000.09 999.75 998.88 998.21 997.97 998.09 999.10 997.89 996.94 997.51 997.91 998.38 998.82 999.32 1000.02 1000.60 1001.18 1001.79 1002.31 1003.02 1003.94 1004.80 1005.61 1006.51 1007.29 1008.39 1009.22 1009.80 1010.24 1010.76 1011.28 1011.43 1011.77 1012.05 1011.93 1012.55 1012.73 1013.31 1014.04 1014.37 1014.65 1014.84 1014.99 1015.13 1015.27 1015.32 1015.31 1015.80 1015.67
999.64 999.83 999.25 998.68 998.21 998.37 997.40 997.35 996.63 997.19 997.48 998.10 998.51 999.00 999.49 999.93 1000.46 1001.24 1001.76 1002.52 1003.31 1004.16 1005.00 1005.94 1006.69 1007.53 1008.23 1008.71 1009.47 1010.07 1010.70 1011.10 1011.04 1011.48 1012.22 1012.46 1012.84 1013.32 1014.10 1014.51 1014.82 1015.02 1015.15 1015.39 1015.72 1015.58 1015.77 1015.91 1015.93
999.69 999.10 998.98 998.71 998.20 997.74 996.96 996.86 996.53 997.01 997.30 997.96 998.23 998.63 999.04 999.60 1000.09 1000.73 1001.45 1001.98 1002.74 1003.28 1004.16 1005.14 1005.90 1006.61 1007.34 1007.93 1008.77 1009.42 1010.00 1010.61 1010.99 1011.52 1011.99 1012.02 1012.50 1013.11 1013.69 1014.13 1014.58 1015.05 1015.44 1015.73 1015.80 1015.95 1016.26 1016.26 1016.09
999.58 999.07 998.89 998.31 997.91 997.53 997.00 996.14 996.91 997.45 998.10 998.16 998.11 998.51 998.76 999.49 1000.04 1000.51 1001.09 1001.50 1002.09 1002.73 1003.31 1004.03 1005.17 1005.87 1006.63 1007.37 1008.09 1008.82 1009.36 1009.90 1010.44 1010.86 1011.48 1012.04 1012.58 1013.22 1013.73 1014.13 1014.43 1014.91 1015.33 1015.68 1015.87 1016.03 1016.40 1016.53 1016.79
998.39 998.03 997.94 997.82 997.67 997.72 997.52 996.91 997.51 998.34 998.65 998.89 999.02 998.89 999.08 999.39 999.73 1000.24 1000.75 1001.46 1001.89 1002.32 1002.88 1003.44 1004.20 1005.17 1006.16 1006.92 1007.64 1008.32 1008.80 1009.30 1009.66 1010.32 1011.07 1011.73 1012.30 1012.94 1013.61 1014.09 1014.52 1014.87 1015.19 1015.51 1015.90 1016.17 1016.43 1016.64 1016.80
Wind_Speed
14 10 4 4 6 2 10 8 8 10 9 4 8 1 10 10 9 8 17 11 17 16 16 15 14 15 15 15 14 15 14 13 12 12 12 11 9 10 10 9 9 6 9 8 9 9 9 9 9
8 6 4 4 4 9 9 6 10 7 10 9 9 5 2 12 10 16 14 17 17 17 16 16 15 14 16 15 14 14 14 13 12 11 11 10 8 8 8 7 8 7 7 6 8 8 8 7 7
7 6 5 4 5 10 9 7 8 8 7 11 4 5 4 7 13 16 19 19 17 16 16 17 13 14 14 14 13 13 13 12 11 10 9 8 7 6 6 5 5 4 4 3 5 6 5 6 6
4 5 5 3 12 9 11 9 11 11 7 3 5 7 8 2 13 11 20 18 16 15 17 16 14 14 13 13 12 12 11 10 10 9 7 6 5 4 5 4 4 4 3 2 3 5 5 4 5
4 4 4 7 10 9 7 7 6 6 6 6 1 7 10 8 9 20 18 16 16 15 18 16 12 12 12 11 11 10 11 10 9 9 8 7 6 6 5 5 5 5 4 2 3 3 4 4 5
5 4 3 10 8 6 6 5 5 6 8 8 12 14 9 9 17 17 16 15 15 14 16 16 13 12 11 10 11 10 9 9 8 8 8 7 5 3 5 5 5 4 5 3 3 4 5 5 5
6 5 7 7 6 6 7 6 1 7 8 9 12 14 8 14 17 15 14 14 13 13 12 14 15 12 11 10 10 9 9 8 6 6 6 5 6 5 5 5 5 6 7 5 4 4 4 5 5
4 4 4 2 6 7 8 5 5 6 11 12 11 8 13 16 17 15 14 14 13 12 12 12 13 13 11 12 9 9 8 6 6 6 5 5 7 5 7 4 7 6 6 5 4 4 5 4 5
2 5 8 8 1 6 11 6 5 5 13 3 3 8 21 20 18 16 14 14 12 10 11 10 8 8 7 6 9 8 7 5 5 7 6 7 8 8 11 7 5 2 3 5 5 4 5 5 9
5 4 4 4 4 4 9 8 10 7 12 7 10 16 22 22 18 18 16 15 15 13 12 10 9 9 9 7 7 7 7 7 5 5 6 6 1 2 5 4 2 5 6 6 6 6 6 8 8
1 4 3 2 2 6 7 6 6 9 10 10 15 22 22 20 19 17 16 16 16 14 10 11 9 7 9 6 6 4 4 5 5 5 5 3 3 4 6 3 7 7 11 8 11 9 9 7 6
4 2 4 2 4 7 7 9 7 7 6 12 18 23 21 19 19 17 16 15 15 14 12 12 11 8 8 6 5 5 4 3 4 4 5 3 5 4 3 3 3 4 4 3 5 5 4 5 5
4 5 3 3 3 5 7 8 4 9 4 16 21 22 21 19 18 15 15 14 13 14 14 13 11 10 8 6 5 5 5 5 5 5 6 5 5 3 4 2 4 5 5 7 7 6 5 4 8
8 5 3 2 2 4 6 6 5 6 11 19 23 22 20 18 17 15 14 14 14 13 13 13 12 11 10 8 6 5 5 5 5 4 4 6 6 4 5 1 2 3 6 7 3 5 6 7 7
6 5 3 1 3 3 4 6 5 12 14 18 20 20 19 18 16 15 15 14 15 13 13 12 12 13 11 10 8 7 5 6 5 5 5 6 7 6 6 4 5 4 3 4 7 8 6 4 4
4 9 4 7 5 4 6 8 7 13 15 17 19 18 18 18 18 15 15 14 14 13 14 13 11 13 13 10 8 6 6 5 5 5 5 8 9 9 6 7 8 6 4 3 4 7 7 4 3
5 8 8 4 2 4 9 2 8 14 15 15 16 18 18 17 17 16 15 14 14 13 13 13 12 11 11 10 7 7 7 6 6 5 6 6 8 9 8 9 9 8 5 4 3 6 3 4 5
10 11 10 10 4 7 6 7 10 15 16 15 15 16 18 18 18 16 16 14 13 12 12 12 11 12 9 6 7 6 6 7 6 5 5 5 7 8 8 8 8 6 4 4 3 5 6 6 5
10 12 12 11 6 6 6 6 7 15 16 15 15 16 18 19 19 18 16 15 14 13 13 13 13 11 9 9 8 7 7 6 6 6 5 7 7 6 7 7 5 6 2 5 6 7 8 5 3
12 13 9 3 4 7 5 11 10 15 18 16 16 17 18 18 20 19 17 16 15 15 14 14 13 13 12 9 7 6 4 5 4 4 4 5 6 5 6 4 3 4 3 6 8 8 2 3 6
13 8 11 13 5 5 10 6 1 7 16 17 17 16 18 18 20 20 20 17 16 15 15 15 16 15 14 12 8 6 5 5 5 5 5 3 2 3 3 3 2 4 4 6 6 6 6 4 4
15 5 7 8 8 6 5 7 2 4 12 17 18 18 18 19 19 20 21 20 18 16 16 15 14 15 14 14 11 12 8 7 5 3 2 2 2 4 4 3 4 4 4 2 4 4 3 5 4
10 6 7 8 10 9 9 8 6 5 8 13 19 20 20 20 20 20 21 21 18 17 15 14 14 14 14 14 13 11 11 7 6 4 5 1 3 4 4 4 4 4 4 3 3 2 3 3 3
4 10 11 8 10 11 8 6 4 4 5 7 15 19 21 20 20 20 20 19 18 17 14 14 14 14 15 15 15 14 11 10 7 6 5 5 5 6 5 4 3 3 1 3 2 2 2 3 4
10 13 10 8 7 4 4 9 7 7 5 5 11 16 18 18 18 19 20 19 18 18 16 14 15 15 15 16 15 16 14 12 10 8 7 4 4 4 6 3 1 2 1 2 3 3 3 5 5
13 16 11 7 8 6 6 5 6 6 4 5 6 8 14 18 18 19 20 19 18 17 18 17 16 15 15 16 16 13 13 10 9 9 6 6 4 4 6 4 4 5 4 4 4 4 3 4 4
12 11 12 12 9 9 4 4 11 3 2 7 8 8 11 16 18 18 18 18 18 18 18 17 16 15 16 17 13 14 13 13 10 9 9 7 5 6 7 6 6 6 5 5 4 5 4 4 3
15 7 10 11 12 11 3 5 2 10 6 4 6 6 9 12 16 16 16 17 17 18 18 17 17 17 16 15 13 12 13 13 11 9 10 10 9 9 10 10 9 7 6 5 3 5 4 3 3
11 13 11 12 7 10 10 1 9 7 4 4 2 2 8 10 12 14 15 15 16 15 16 18 16 16 15 14 13 12 12 13 12 12 12 11 12 11 10 9 9 9 8 7 4 4 5 4 4
6 11 18 11 15 8 9 4 11 8 8 4 1 2 2 3 7 10 12 12 14 15 15 16 16 16 14 13 13 13 13 13 13 13 14 14 13 13 11 11 10 9 8 8 6 5 6 5 4
Wind_Direction
165 182 187 210 230 219 57 77 117 117 132 86 125 56 70 28 7 66 129 135 135 135 128 140 131 128 125 120 122 122 124 127 123 129 123 125 124 117 114 105 96 84 86 91 98 103 106 109 108
134 153 214 273 244 90 71 57 100 124 93 147 111 90 62 81 67 126 131 142 148 136 140 131 128 125 124 127 127 125 125 124 126 127 130 130 129 123 118 106 98 96 92 95 101 102 107 114 114
153 203 256 283 25 57 88 77 88 99 120 153 98 36 29 66 119 138 128 147 148 143 134 120 133 129 128 125 125 124 128 131 134 133 137 136 143 139 128 122 115 106 97 105 107 109 115 116 112
219 191 225 106 85 75 81 100 112 111 121 124 83 85 98 60 131 126 143 149 141 145 128 133 137 137 134 130 127 131 132 131 134 138 146 155 162 175 157 166 173 152 162 181 146 131 127 143 132
226 236 139 90 91 87 85 108 135 84 102 136 145 106 102 121 116 135 143 152 147 149 125 143 145 140 139 145 137 140 143 142 145 148 150 156 169 189 190 194 203 187 201 204 169 165 147 158 169
218 256 100 85 90 102 111 130 114 91 112 106 116 123 95 122 142 145 150 151 150 145 142 133 149 152 154 158 152 156 152 152 157 162 165 164 168 174 188 207 204 197 205 211 171 182 182 174 169
313 310 52 86 83 120 110 134 169 103 124 108 141 114 102 145 142 147 152 145 150 150 145 153 163 166 172 171 169 165 164 161 165 174 178 180 187 174 181 188 193 212 212 217 202 196 199 190 189
297 280 154 51 63 86 120 147 129 108 92 122 146 147 153 150 153 150 152 149 160 160 158 163 157 164 171 161 168 171 168 165 170 173 173 185 188 197 176 198 200 229 220 229 219 217 217 217 218
241 247 75 82 71 115 141 140 138 93 142 106 91 147 136 155 155 156 157 160 163 173 161 159 160 149 156 164 151 175 178 178 203 200 192 204 216 164 153 104 108 227 228 210 212 231 229 227 229
277 339 63 354 59 126 164 154 153 149 161 121 117 112 141 155 164 164 168 169 166 176 170 155 165 171 161 173 150 185 175 197 197 191 160 236 95 84 330 52 168 244 236 239 230 239 235 233 248
39 0 12 93 128 146 174 168 165 149 176 154 150 146 155 162 170 171 174 173 171 173 172 168 174 184 168 170 173 185 181 212 176 211 216 210 225 197 201 205 196 190 204 244 192 199 231 295 319
287 320 297 329 157 172 173 154 173 177 69 143 153 156 159 170 173 174 176 175 172 170 179 176 170 181 180 174 187 185 199 199 210 186 202 241 228 210 256 282 298 224 252 263 233 259 270 283 243
293 351 291 268 258 207 144 173 149 179 166 138 152 161 168 175 173 172 174 173 179 178 179 184 176 181 188 199 176 200 216 202 208 206 197 241 249 249 256 253 295 16 327 310 305 283 289 304 270
351 349 337 319 211 165 187 153 203 127 145 149 159 171 173 177 173 168 176 176 184 185 181 183 184 181 194 198 195 206 208 213 217 219 207 210 257 253 279 71 94 290 291 295 268 279 287 292 257
320 238 185 59 131 132 191 176 206 141 155 159 170 176 176 181 176 178 180 181 187 187 182 187 188 184 193 197 197 214 214 211 218 221 214 228 246 229 266 280 225 238 224 273 299 267 252 246 288
246 223 11 120 195 130 217 104 157 161 166 169 173 179 181 184 186 185 179 186 178 189 186 190 191 193 187 197 194 218 212 226 223 225 227 216 235 249 239 248 254 242 231 195 259 284 290 268 271
195 1 16 71 234 157 211 6 158 177 178 175 177 178 188 190 198 186 189 193 181 188 184 194 196 200 192 193 211 216 226 225 239 231 234 218 233 239 240 257 260 247 228 207 217 271 272 295 282
336 332 340 358 91 233 226 255 168 188 196 182 178 181 186 195 197 197 202 196 200 185 195 197 198 198 194 195 211 226 230 231 236 240 245 252 242 243 252 261 267 271 221 196 205 265 284 256 287
305 309 319 6 47 279 276 258 206 191 202 196 184 187 190 194 191 192 206 205 201 202 197 201 201 194 193 194 202 212 223 219 230 238 243 254 252 250 264 278 276 275 211 212 194 223 238 289 280
292 296 341 70 58 270 311 278 221 204 206 206 199 191 193 194 192 195 202 208 205 200 206 201 209 196 201 204 210 219 227 223 243 238 243 250 258 268 251 243 255 267 236 196 202 226 266 252 252
269 320 345 335 321 215 296 206 90 199 209 207 206 211 196 189 196 195 200 204 209 210 202 208 205 203 201 216 202 206 236 243 226 213 225 189 227 203 204 206 236 196 230 166 176 204 225 258 234
268 29 323 326 288 2 341 341 77 172 202 210 211 207 207 199 195 197 202 203 210 210 210 214 210 210 203 200 206 213 227 233 214 216 51 17 168 184 181 176 182 194 207 151 186 210 263 253 265
293 343 325 302 285 287 125 280 99 161 225 213 211 210 209 203 198 198 202 201 209 209 210 213 210 209 213 199 216 202 223 226 220 204 146 195 176 194 167 162 164 176 223 175 269 245 240 276 282
316 260 246 250 267 273 72 319 285 47 326 182 200 208 204 205 207 205 202 202 203 208 208 211 200 207 204 203 203 214 214 222 224 203 204 201 192 170 173 168 202 214 234 227 222 334 357 348 355
230 250 262 245 232 323 60 287 305 316 291 242 188 196 203 202 208 206 207 205 202 207 205 211 203 205 201 201 205 210 213 207 212 217 216 209 196 184 146 183 193 159 100 116 100 74 78 51 47
216 250 271 285 296 342 146 272 340 346 314 205 176 181 200 205 203 210 203 205 201 206 209 211 205 205 199 200 208 210 210 209 211 207 221 208 199 169 134 153 135 129 124 108 111 130 95 115 81
211 235 267 290 245 259 287 329 268 124 264 201 208 208 208 204 203 199 201 202 204 205 208 208 207 201 201 201 203 203 203 216 208 208 191 196 179 135 162 149 148 140 141 143 151 103 112 105 69
260 283 216 226 267 270 352 287 295 1 19 172 218 215 201 203 201 196 203 198 203 207 205 204 204 202 199 204 200 203 202 203 205 192 195 181 167 166 159 160 159 160 152 147 169 153 108 79 46
193 221 236 296 295 294 281 44 66 34 34 337 170 168 173 171 189 200 201 209 201 208 208 203 203 205 201 198 197 202 198 197 194 191 190 179 167 164 164 163 160 163 166 161 158 94 110 87 74
298 238 235 228 241 243 293 334 74 52 33 17 307 311 143 188 189 196 200 210 214 207 209 208 201 204 201 195 194 197 196 195 191 191 184 176 170 164 163 162 165 172 170 162 157 175 127 131 94